Location: ??
(35.4032°N, 139.3073°E)
Time: 03:20:09
(UTC+00:00)

Cosmos 2056 Rocket - Pass Details

Date: 13 April 2024
Orbit: 739 x 799 km, 74.0° (Epoch: 25 May)

Event Time Altitude Azimuth Distance (km) Brightness Sun altitude
Rises 19:37:58 0° 331° (NNW) 3,294 6.7 -7.5°
Reaches altitude 10° 19:40:32 10° 323° (NW) 2,366 5.8 -7.0°
Maximum altitude 19:45:20 34° 260° (W) 1,298 4.2 -6.1°
Drops below altitude 10° 19:50:08 10° 197° (SSW) 2,362 5.7 -5.1°
Sets 19:52:43 0° 188° (S) 3,287 6.5 -4.6°
